Index of /20260430/WXO-DD/model_rdps/10km/06/064
Name Last modified Size Description
Parent Directory -
20260430T06Z_MSC_RDPS_AbsoluteVorticity_IsbL-0250_RLatLon0.09_PT064H.grib2 2026-04-30 08:59 615K
20260430T06Z_MSC_RDPS_AbsoluteVorticity_IsbL-0500_RLatLon0.09_PT064H.grib2 2026-04-30 08:59 569K
20260430T06Z_MSC_RDPS_AbsoluteVorticity_IsbL-0700_RLatLon0.09_PT064H.grib2 2026-04-30 08:59 624K
20260430T06Z_MSC_RDPS_AbsoluteVorticity_IsbL-0850_RLatLon0.09_PT064H.grib2 2026-04-30 08:59 782K
20260430T06Z_MSC_RDPS_AirTemp_AGL-120m_RLatLon0.09_PT064H.grib2 2026-04-30 08:59 389K
20260430T06Z_MSC_RDPS_AirTemp_AGL-2m_RLatLon0.09_PT064H.grib2 2026-04-30 08:59 622K
20260430T06Z_MSC_RDPS_AirTemp_AGL-40m_RLatLon0.09_PT064H.grib2 2026-04-30 08:59 397K
20260430T06Z_MSC_RDPS_AirTemp_AGL-80m_RLatLon0.09_PT064H.grib2 2026-04-30 08:59 392K
20260430T06Z_MSC_RDPS_AirTemp_IsbL-0001_RLatLon0.09_PT064H.grib2 2026-04-30 08:59 311K
20260430T06Z_MSC_RDPS_AirTemp_IsbL-0005_RLatLon0.09_PT064H.grib2 2026-04-30 08:59 290K
20260430T06Z_MSC_RDPS_AirTemp_IsbL-0010_RLatLon0.09_PT064H.grib2 2026-04-30 08:59 300K
20260430T06Z_MSC_RDPS_AirTemp_IsbL-0020_RLatLon0.09_PT064H.grib2 2026-04-30 08:59 412K
20260430T06Z_MSC_RDPS_AirTemp_IsbL-0030_RLatLon0.09_PT064H.grib2 2026-04-30 08:59 341K
20260430T06Z_MSC_RDPS_AirTemp_IsbL-0050_RLatLon0.09_PT064H.grib2 2026-04-30 08:59 315K
20260430T06Z_MSC_RDPS_AirTemp_IsbL-0100_RLatLon0.09_PT064H.grib2 2026-04-30 08:59 425K
20260430T06Z_MSC_RDPS_AirTemp_IsbL-0150_RLatLon0.09_PT064H.grib2 2026-04-30 08:59 420K
20260430T06Z_MSC_RDPS_AirTemp_IsbL-0175_RLatLon0.09_PT064H.grib2 2026-04-30 08:59 413K
20260430T06Z_MSC_RDPS_AirTemp_IsbL-0200_RLatLon0.09_PT064H.grib2 2026-04-30 08:59 416K
20260430T06Z_MSC_RDPS_AirTemp_IsbL-0225_RLatLon0.09_PT064H.grib2 2026-04-30 08:59 417K
20260430T06Z_MSC_RDPS_AirTemp_IsbL-0250_RLatLon0.09_PT064H.grib2 2026-04-30 08:59 423K
20260430T06Z_MSC_RDPS_AirTemp_IsbL-0275_RLatLon0.09_PT064H.grib2 2026-04-30 08:59 403K
20260430T06Z_MSC_RDPS_AirTemp_IsbL-0300_RLatLon0.09_PT064H.grib2 2026-04-30 08:59 410K
20260430T06Z_MSC_RDPS_AirTemp_IsbL-0350_RLatLon0.09_PT064H.grib2 2026-04-30 08:59 425K
20260430T06Z_MSC_RDPS_AirTemp_IsbL-0400_RLatLon0.09_PT064H.grib2 2026-04-30 08:59 391K
20260430T06Z_MSC_RDPS_AirTemp_IsbL-0450_RLatLon0.09_PT064H.grib2 2026-04-30 08:59 399K
20260430T06Z_MSC_RDPS_AirTemp_IsbL-0500_RLatLon0.09_PT064H.grib2 2026-04-30 08:59 411K
20260430T06Z_MSC_RDPS_AirTemp_IsbL-0550_RLatLon0.09_PT064H.grib2 2026-04-30 08:59 429K
20260430T06Z_MSC_RDPS_AirTemp_IsbL-0600_RLatLon0.09_PT064H.grib2 2026-04-30 08:59 446K
20260430T06Z_MSC_RDPS_AirTemp_IsbL-0650_RLatLon0.09_PT064H.grib2 2026-04-30 08:59 463K
20260430T06Z_MSC_RDPS_AirTemp_IsbL-0700_RLatLon0.09_PT064H.grib2 2026-04-30 08:59 382K
20260430T06Z_MSC_RDPS_AirTemp_IsbL-0750_RLatLon0.09_PT064H.grib2 2026-04-30 08:59 412K
20260430T06Z_MSC_RDPS_AirTemp_IsbL-0800_RLatLon0.09_PT064H.grib2 2026-04-30 08:59 447K
20260430T06Z_MSC_RDPS_AirTemp_IsbL-0850_RLatLon0.09_PT064H.grib2 2026-04-30 08:59 497K
20260430T06Z_MSC_RDPS_AirTemp_IsbL-0875_RLatLon0.09_PT064H.grib2 2026-04-30 08:59 518K
20260430T06Z_MSC_RDPS_AirTemp_IsbL-0900_RLatLon0.09_PT064H.grib2 2026-04-30 08:59 528K
20260430T06Z_MSC_RDPS_AirTemp_IsbL-0925_RLatLon0.09_PT064H.grib2 2026-04-30 08:59 524K
20260430T06Z_MSC_RDPS_AirTemp_IsbL-0950_RLatLon0.09_PT064H.grib2 2026-04-30 08:59 522K
20260430T06Z_MSC_RDPS_AirTemp_IsbL-0970_RLatLon0.09_PT064H.grib2 2026-04-30 08:59 519K
20260430T06Z_MSC_RDPS_AirTemp_IsbL-0985_RLatLon0.09_PT064H.grib2 2026-04-30 08:59 510K
20260430T06Z_MSC_RDPS_AirTemp_IsbL-1000_RLatLon0.09_PT064H.grib2 2026-04-30 08:59 495K
20260430T06Z_MSC_RDPS_AirTemp_IsbL-1015_RLatLon0.09_PT064H.grib2 2026-04-30 08:59 490K
20260430T06Z_MSC_RDPS_Albedo_Sfc_RLatLon0.09_PT064H.grib2 2026-04-30 08:59 157K
20260430T06Z_MSC_RDPS_CAPE_Sfc_RLatLon0.09_PT064H.grib2 2026-04-30 08:59 1.7M
20260430T06Z_MSC_RDPS_CIN_Sfc_RLatLon0.09_PT064H.grib2 2026-04-30 08:59 1.3M
20260430T06Z_MSC_RDPS_CloudWater_EAtm_RLatLon0.09_PT064H.grib2 2026-04-30 08:59 224K
20260430T06Z_MSC_RDPS_ConvectivePrecip-Accum_Sfc_RLatLon0.09_PT064H.grib2 2026-04-30 08:59 1.2M
20260430T06Z_MSC_RDPS_DewPointDepression_AGL-2m_RLatLon0.09_PT064H.grib2 2026-04-30 08:59 419K
20260430T06Z_MSC_RDPS_DewPointDepression_IsbL-0001_RLatLon0.09_PT064H.grib2 2026-04-30 08:59 193
20260430T06Z_MSC_RDPS_DewPointDepression_IsbL-0005_RLatLon0.09_PT064H.grib2 2026-04-30 08:59 193
20260430T06Z_MSC_RDPS_DewPointDepression_IsbL-0010_RLatLon0.09_PT064H.grib2 2026-04-30 08:59 193
20260430T06Z_MSC_RDPS_DewPointDepression_IsbL-0020_RLatLon0.09_PT064H.grib2 2026-04-30 08:59 193
20260430T06Z_MSC_RDPS_DewPointDepression_IsbL-0030_RLatLon0.09_PT064H.grib2 2026-04-30 08:59 193
20260430T06Z_MSC_RDPS_DewPointDepression_IsbL-0050_RLatLon0.09_PT064H.grib2 2026-04-30 08:59 78K
20260430T06Z_MSC_RDPS_DewPointDepression_IsbL-0100_RLatLon0.09_PT064H.grib2 2026-04-30 08:59 125K
20260430T06Z_MSC_RDPS_DewPointDepression_IsbL-0150_RLatLon0.09_PT064H.grib2 2026-04-30 08:59 153K
20260430T06Z_MSC_RDPS_DewPointDepression_IsbL-0175_RLatLon0.09_PT064H.grib2 2026-04-30 08:59 188K
20260430T06Z_MSC_RDPS_DewPointDepression_IsbL-0200_RLatLon0.09_PT064H.grib2 2026-04-30 08:59 220K
20260430T06Z_MSC_RDPS_DewPointDepression_IsbL-0225_RLatLon0.09_PT064H.grib2 2026-04-30 08:59 256K
20260430T06Z_MSC_RDPS_DewPointDepression_IsbL-0250_RLatLon0.09_PT064H.grib2 2026-04-30 08:59 295K
20260430T06Z_MSC_RDPS_DewPointDepression_IsbL-0275_RLatLon0.09_PT064H.grib2 2026-04-30 08:59 307K
20260430T06Z_MSC_RDPS_DewPointDepression_IsbL-0300_RLatLon0.09_PT064H.grib2 2026-04-30 08:59 326K
20260430T06Z_MSC_RDPS_DewPointDepression_IsbL-0350_RLatLon0.09_PT064H.grib2 2026-04-30 08:59 335K
20260430T06Z_MSC_RDPS_DewPointDepression_IsbL-0400_RLatLon0.09_PT064H.grib2 2026-04-30 08:59 346K
20260430T06Z_MSC_RDPS_DewPointDepression_IsbL-0450_RLatLon0.09_PT064H.grib2 2026-04-30 08:59 349K
20260430T06Z_MSC_RDPS_DewPointDepression_IsbL-0500_RLatLon0.09_PT064H.grib2 2026-04-30 08:59 356K
20260430T06Z_MSC_RDPS_DewPointDepression_IsbL-0550_RLatLon0.09_PT064H.grib2 2026-04-30 08:59 370K
20260430T06Z_MSC_RDPS_DewPointDepression_IsbL-0600_RLatLon0.09_PT064H.grib2 2026-04-30 08:59 378K
20260430T06Z_MSC_RDPS_DewPointDepression_IsbL-0650_RLatLon0.09_PT064H.grib2 2026-04-30 08:59 390K
20260430T06Z_MSC_RDPS_DewPointDepression_IsbL-0700_RLatLon0.09_PT064H.grib2 2026-04-30 08:59 404K
20260430T06Z_MSC_RDPS_DewPointDepression_IsbL-0750_RLatLon0.09_PT064H.grib2 2026-04-30 08:59 419K
20260430T06Z_MSC_RDPS_DewPointDepression_IsbL-0800_RLatLon0.09_PT064H.grib2 2026-04-30 08:59 442K
20260430T06Z_MSC_RDPS_DewPointDepression_IsbL-0850_RLatLon0.09_PT064H.grib2 2026-04-30 08:59 472K
20260430T06Z_MSC_RDPS_DewPointDepression_IsbL-0875_RLatLon0.09_PT064H.grib2 2026-04-30 08:59 476K
20260430T06Z_MSC_RDPS_DewPointDepression_IsbL-0900_RLatLon0.09_PT064H.grib2 2026-04-30 08:59 467K
20260430T06Z_MSC_RDPS_DewPointDepression_IsbL-0925_RLatLon0.09_PT064H.grib2 2026-04-30 08:59 451K
20260430T06Z_MSC_RDPS_DewPointDepression_IsbL-0950_RLatLon0.09_PT064H.grib2 2026-04-30 08:59 441K
20260430T06Z_MSC_RDPS_DewPointDepression_IsbL-0970_RLatLon0.09_PT064H.grib2 2026-04-30 08:59 436K
20260430T06Z_MSC_RDPS_DewPointDepression_IsbL-0985_RLatLon0.09_PT064H.grib2 2026-04-30 08:59 432K
20260430T06Z_MSC_RDPS_DewPointDepression_IsbL-1000_RLatLon0.09_PT064H.grib2 2026-04-30 08:59 426K
20260430T06Z_MSC_RDPS_DewPointDepression_IsbL-1015_RLatLon0.09_PT064H.grib2 2026-04-30 08:59 417K
20260430T06Z_MSC_RDPS_DewPoint_AGL-2m_RLatLon0.09_PT064H.grib2 2026-04-30 08:59 309K
20260430T06Z_MSC_RDPS_DownwardLongwaveRadiationFlux-Accum_Sfc_RLatLon0.09_PT064H.grib2 2026-04-30 08:59 412K
20260430T06Z_MSC_RDPS_DownwardShortwaveRadiationFlux-Accum_NTAtm_RLatLon0.09_PT064H.grib2 2026-04-30 08:59 112K
20260430T06Z_MSC_RDPS_DownwardShortwaveRadiationFlux-Accum_Sfc_RLatLon0.09_PT064H.grib2 2026-04-30 08:59 608K
20260430T06Z_MSC_RDPS_FreezingRain-Accum1h_Sfc_RLatLon0.09_PT064H.grib2 2026-04-30 08:59 12K
20260430T06Z_MSC_RDPS_FreezingRain-Accum_Sfc_RLatLon0.09_PT064H.grib2 2026-04-30 08:59 195K
20260430T06Z_MSC_RDPS_GeopotentialHeight_IsbL-0001_RLatLon0.09_PT064H.grib2 2026-04-30 08:59 243K
20260430T06Z_MSC_RDPS_GeopotentialHeight_IsbL-0005_RLatLon0.09_PT064H.grib2 2026-04-30 08:59 338K
20260430T06Z_MSC_RDPS_GeopotentialHeight_IsbL-0010_RLatLon0.09_PT064H.grib2 2026-04-30 08:59 306K
20260430T06Z_MSC_RDPS_GeopotentialHeight_IsbL-0020_RLatLon0.09_PT064H.grib2 2026-04-30 08:59 306K
20260430T06Z_MSC_RDPS_GeopotentialHeight_IsbL-0030_RLatLon0.09_PT064H.grib2 2026-04-30 08:59 308K
20260430T06Z_MSC_RDPS_GeopotentialHeight_IsbL-0050_RLatLon0.09_PT064H.grib2 2026-04-30 08:59 309K
20260430T06Z_MSC_RDPS_GeopotentialHeight_IsbL-0100_RLatLon0.09_PT064H.grib2 2026-04-30 08:59 286K
20260430T06Z_MSC_RDPS_GeopotentialHeight_IsbL-0150_RLatLon0.09_PT064H.grib2 2026-04-30 08:59 231K
20260430T06Z_MSC_RDPS_GeopotentialHeight_IsbL-0175_RLatLon0.09_PT064H.grib2 2026-04-30 08:59 264K
20260430T06Z_MSC_RDPS_GeopotentialHeight_IsbL-0200_RLatLon0.09_PT064H.grib2 2026-04-30 08:59 267K
20260430T06Z_MSC_RDPS_GeopotentialHeight_IsbL-0225_RLatLon0.09_PT064H.grib2 2026-04-30 08:59 267K
20260430T06Z_MSC_RDPS_GeopotentialHeight_IsbL-0250_RLatLon0.09_PT064H.grib2 2026-04-30 08:59 268K
20260430T06Z_MSC_RDPS_GeopotentialHeight_IsbL-0275_RLatLon0.09_PT064H.grib2 2026-04-30 08:59 266K
20260430T06Z_MSC_RDPS_GeopotentialHeight_IsbL-0300_RLatLon0.09_PT064H.grib2 2026-04-30 08:59 264K
20260430T06Z_MSC_RDPS_GeopotentialHeight_IsbL-0350_RLatLon0.09_PT064H.grib2 2026-04-30 08:59 230K
20260430T06Z_MSC_RDPS_GeopotentialHeight_IsbL-0400_RLatLon0.09_PT064H.grib2 2026-04-30 08:59 228K
20260430T06Z_MSC_RDPS_GeopotentialHeight_IsbL-0450_RLatLon0.09_PT064H.grib2 2026-04-30 08:59 297K
20260430T06Z_MSC_RDPS_GeopotentialHeight_IsbL-0500_RLatLon0.09_PT064H.grib2 2026-04-30 08:59 293K
20260430T06Z_MSC_RDPS_GeopotentialHeight_IsbL-0550_RLatLon0.09_PT064H.grib2 2026-04-30 08:59 290K
20260430T06Z_MSC_RDPS_GeopotentialHeight_IsbL-0600_RLatLon0.09_PT064H.grib2 2026-04-30 08:59 287K
20260430T06Z_MSC_RDPS_GeopotentialHeight_IsbL-0650_RLatLon0.09_PT064H.grib2 2026-04-30 08:59 257K
20260430T06Z_MSC_RDPS_GeopotentialHeight_IsbL-0700_RLatLon0.09_PT064H.grib2 2026-04-30 08:59 257K
20260430T06Z_MSC_RDPS_GeopotentialHeight_IsbL-0750_RLatLon0.09_PT064H.grib2 2026-04-30 08:59 342K
20260430T06Z_MSC_RDPS_GeopotentialHeight_IsbL-0800_RLatLon0.09_PT064H.grib2 2026-04-30 08:59 346K
20260430T06Z_MSC_RDPS_GeopotentialHeight_IsbL-0850_RLatLon0.09_PT064H.grib2 2026-04-30 08:59 354K
20260430T06Z_MSC_RDPS_GeopotentialHeight_IsbL-0875_RLatLon0.09_PT064H.grib2 2026-04-30 08:59 359K
20260430T06Z_MSC_RDPS_GeopotentialHeight_IsbL-0900_RLatLon0.09_PT064H.grib2 2026-04-30 08:59 363K
20260430T06Z_MSC_RDPS_GeopotentialHeight_IsbL-0925_RLatLon0.09_PT064H.grib2 2026-04-30 08:59 364K
20260430T06Z_MSC_RDPS_GeopotentialHeight_IsbL-0950_RLatLon0.09_PT064H.grib2 2026-04-30 08:59 370K
20260430T06Z_MSC_RDPS_GeopotentialHeight_IsbL-0970_RLatLon0.09_PT064H.grib2 2026-04-30 08:59 376K
20260430T06Z_MSC_RDPS_GeopotentialHeight_IsbL-0985_RLatLon0.09_PT064H.grib2 2026-04-30 08:59 384K
20260430T06Z_MSC_RDPS_GeopotentialHeight_IsbL-1000_RLatLon0.09_PT064H.grib2 2026-04-30 08:59 396K
20260430T06Z_MSC_RDPS_GeopotentialHeight_IsbL-1015_RLatLon0.09_PT064H.grib2 2026-04-30 08:59 410K
20260430T06Z_MSC_RDPS_Humidex_Sfc_RLatLon0.09_PT064H.grib2 2026-04-30 08:59 2.4M
20260430T06Z_MSC_RDPS_IcePellets-Accum1h_Sfc_RLatLon0.09_PT064H.grib2 2026-04-30 08:59 3.1K
20260430T06Z_MSC_RDPS_IcePellets-Accum_Sfc_RLatLon0.09_PT064H.grib2 2026-04-30 08:59 22K
20260430T06Z_MSC_RDPS_KIndex_Sfc_RLatLon0.09_PT064H.grib2 2026-04-30 08:59 2.4M
20260430T06Z_MSC_RDPS_LatentHeatNetFlux_Sfc_RLatLon0.09_PT064H.grib2 2026-04-30 08:59 296K
20260430T06Z_MSC_RDPS_LiftedIndex-MU-VT_IsbL-0500_RLatLon0.09_PT064H.grib2 2026-04-30 08:59 2.4M
20260430T06Z_MSC_RDPS_NetLongwaveRadiationFlux-Accum_Sfc_RLatLon0.09_PT064H.grib2 2026-04-30 08:59 592K
20260430T06Z_MSC_RDPS_NetShortwaveRadiationFlux-Accum_Sfc_RLatLon0.09_PT064H.grib2 2026-04-30 08:59 610K
20260430T06Z_MSC_RDPS_PlanetaryBoundaryLayerHeight_Sfc_RLatLon0.09_PT064H.grib2 2026-04-30 08:59 1.0M
20260430T06Z_MSC_RDPS_Precip-Accum1h_Sfc_RLatLon0.09_PT064H.grib2 2026-04-30 08:59 1.2M
20260430T06Z_MSC_RDPS_Precip-Accum_Sfc_RLatLon0.09_PT064H.grib2 2026-04-30 08:59 2.1M
20260430T06Z_MSC_RDPS_PrecipRate_Sfc_RLatLon0.09_PT064H.grib2 2026-04-30 08:59 133K
20260430T06Z_MSC_RDPS_PrecipType-Instant_Sfc_RLatLon0.09_PT064H.grib2 2026-04-30 08:59 589K
20260430T06Z_MSC_RDPS_Pressure-Trend3h_Sfc_RLatLon0.09_PT064H.grib2 2026-04-30 08:59 1.2M
20260430T06Z_MSC_RDPS_Pressure_MSL_RLatLon0.09_PT064H.grib2 2026-04-30 08:59 327K
20260430T06Z_MSC_RDPS_Pressure_PVU-1.5_RLatLon0.09_PT064H.grib2 2026-04-30 08:59 2.5M
20260430T06Z_MSC_RDPS_Pressure_PVU-1_RLatLon0.09_PT064H.grib2 2026-04-30 08:59 2.4M
20260430T06Z_MSC_RDPS_Pressure_PVU-2_RLatLon0.09_PT064H.grib2 2026-04-30 08:59 2.4M
20260430T06Z_MSC_RDPS_Pressure_Sfc_RLatLon0.09_PT064H.grib2 2026-04-30 08:59 498K
20260430T06Z_MSC_RDPS_RadiativeTemp_Sfc_RLatLon0.09_PT064H.grib2 2026-04-30 08:59 324K
20260430T06Z_MSC_RDPS_Rain-Accum1h_Sfc_RLatLon0.09_PT064H.grib2 2026-04-30 08:59 545K
20260430T06Z_MSC_RDPS_Rain-Accum_Sfc_RLatLon0.09_PT064H.grib2 2026-04-30 08:59 1.7M
20260430T06Z_MSC_RDPS_RelativeHumidity_AGL-2m_RLatLon0.09_PT064H.grib2 2026-04-30 08:59 1.0M
20260430T06Z_MSC_RDPS_RelativeHumidity_IsbL-0010_RLatLon0.09_PT064H.grib2 2026-04-30 08:59 613K
20260430T06Z_MSC_RDPS_RelativeHumidity_IsbL-0020_RLatLon0.09_PT064H.grib2 2026-04-30 08:59 660K
20260430T06Z_MSC_RDPS_RelativeHumidity_IsbL-0030_RLatLon0.09_PT064H.grib2 2026-04-30 08:59 604K
20260430T06Z_MSC_RDPS_RelativeHumidity_IsbL-0050_RLatLon0.09_PT064H.grib2 2026-04-30 08:59 313K
20260430T06Z_MSC_RDPS_RelativeHumidity_IsbL-0100_RLatLon0.09_PT064H.grib2 2026-04-30 08:59 279K
20260430T06Z_MSC_RDPS_RelativeHumidity_IsbL-0150_RLatLon0.09_PT064H.grib2 2026-04-30 08:59 415K
20260430T06Z_MSC_RDPS_RelativeHumidity_IsbL-0175_RLatLon0.09_PT064H.grib2 2026-04-30 08:59 477K
20260430T06Z_MSC_RDPS_RelativeHumidity_IsbL-0200_RLatLon0.09_PT064H.grib2 2026-04-30 08:59 551K
20260430T06Z_MSC_RDPS_RelativeHumidity_IsbL-0225_RLatLon0.09_PT064H.grib2 2026-04-30 08:59 620K
20260430T06Z_MSC_RDPS_RelativeHumidity_IsbL-0250_RLatLon0.09_PT064H.grib2 2026-04-30 08:59 686K
20260430T06Z_MSC_RDPS_RelativeHumidity_IsbL-0275_RLatLon0.09_PT064H.grib2 2026-04-30 08:59 710K
20260430T06Z_MSC_RDPS_RelativeHumidity_IsbL-0300_RLatLon0.09_PT064H.grib2 2026-04-30 08:59 752K
20260430T06Z_MSC_RDPS_RelativeHumidity_IsbL-0350_RLatLon0.09_PT064H.grib2 2026-04-30 08:59 778K
20260430T06Z_MSC_RDPS_RelativeHumidity_IsbL-0400_RLatLon0.09_PT064H.grib2 2026-04-30 08:59 794K
20260430T06Z_MSC_RDPS_RelativeHumidity_IsbL-0450_RLatLon0.09_PT064H.grib2 2026-04-30 08:59 795K
20260430T06Z_MSC_RDPS_RelativeHumidity_IsbL-0500_RLatLon0.09_PT064H.grib2 2026-04-30 08:59 802K
20260430T06Z_MSC_RDPS_RelativeHumidity_IsbL-0550_RLatLon0.09_PT064H.grib2 2026-04-30 08:59 826K
20260430T06Z_MSC_RDPS_RelativeHumidity_IsbL-0600_RLatLon0.09_PT064H.grib2 2026-04-30 08:59 844K
20260430T06Z_MSC_RDPS_RelativeHumidity_IsbL-0650_RLatLon0.09_PT064H.grib2 2026-04-30 08:59 869K
20260430T06Z_MSC_RDPS_RelativeHumidity_IsbL-0700_RLatLon0.09_PT064H.grib2 2026-04-30 08:59 888K
20260430T06Z_MSC_RDPS_RelativeHumidity_IsbL-0750_RLatLon0.09_PT064H.grib2 2026-04-30 08:59 933K
20260430T06Z_MSC_RDPS_RelativeHumidity_IsbL-0800_RLatLon0.09_PT064H.grib2 2026-04-30 08:59 1.0M
20260430T06Z_MSC_RDPS_RelativeHumidity_IsbL-0850_RLatLon0.09_PT064H.grib2 2026-04-30 08:59 1.0M
20260430T06Z_MSC_RDPS_RelativeHumidity_IsbL-0875_RLatLon0.09_PT064H.grib2 2026-04-30 08:59 1.1M
20260430T06Z_MSC_RDPS_RelativeHumidity_IsbL-0900_RLatLon0.09_PT064H.grib2 2026-04-30 08:59 1.1M
20260430T06Z_MSC_RDPS_RelativeHumidity_IsbL-0925_RLatLon0.09_PT064H.grib2 2026-04-30 08:59 1.1M
20260430T06Z_MSC_RDPS_RelativeHumidity_IsbL-0950_RLatLon0.09_PT064H.grib2 2026-04-30 08:59 1.1M
20260430T06Z_MSC_RDPS_RelativeHumidity_IsbL-0970_RLatLon0.09_PT064H.grib2 2026-04-30 08:59 1.0M
20260430T06Z_MSC_RDPS_RelativeHumidity_IsbL-0985_RLatLon0.09_PT064H.grib2 2026-04-30 08:59 1.0M
20260430T06Z_MSC_RDPS_RelativeHumidity_IsbL-1000_RLatLon0.09_PT064H.grib2 2026-04-30 08:59 1.0M
20260430T06Z_MSC_RDPS_RelativeHumidity_IsbL-1015_RLatLon0.09_PT064H.grib2 2026-04-30 08:59 1.0M
20260430T06Z_MSC_RDPS_Runoff-Accum_Sfc_RLatLon0.09_PT064H.grib2 2026-04-30 08:59 63K
20260430T06Z_MSC_RDPS_SWEATIndex_Sfc_RLatLon0.09_PT064H.grib2 2026-04-30 08:59 2.4M
20260430T06Z_MSC_RDPS_SeeingIndex_EAtm_RLatLon0.09_PT064H.grib2 2026-04-30 08:59 1.0M
20260430T06Z_MSC_RDPS_SensibleHeatNetFlux_Sfc_RLatLon0.09_PT064H.grib2 2026-04-30 08:59 347K
20260430T06Z_MSC_RDPS_ShowalterIndex_IsbL-0500_RLatLon0.09_PT064H.grib2 2026-04-30 08:59 2.6M
20260430T06Z_MSC_RDPS_SkyTransparencyIndex_EAtm_RLatLon0.09_PT064H.grib2 2026-04-30 08:59 723K
20260430T06Z_MSC_RDPS_Snow-Accum1h_Sfc_RLatLon0.09_PT064H.grib2 2026-04-30 08:59 449K
20260430T06Z_MSC_RDPS_Snow-Accum_Sfc_RLatLon0.09_PT064H.grib2 2026-04-30 08:59 757K
20260430T06Z_MSC_RDPS_SnowDensity_Sfc_RLatLon0.09_PT064H.grib2 2026-04-30 08:59 178K
20260430T06Z_MSC_RDPS_SnowDepth_Sfc_RLatLon0.09_PT064H.grib2 2026-04-30 08:59 664K
20260430T06Z_MSC_RDPS_SoilTemp_DBS-0to10cm_RLatLon0.09_PT064H.grib2 2026-04-30 08:59 246K
20260430T06Z_MSC_RDPS_SoilTemp_Sfc_RLatLon0.09_PT064H.grib2 2026-04-30 08:59 286K
20260430T06Z_MSC_RDPS_SoilVolumetricIceContent_Sfc_RLatLon0.09_PT064H.grib2 2026-04-30 08:59 159K
20260430T06Z_MSC_RDPS_SoilVolumetricWaterContent_DBS-0to10cm_RLatLon0.09_PT064H.grib2 2026-04-30 08:59 272K
20260430T06Z_MSC_RDPS_SoilVolumetricWaterContent_DBS-0to1cm_RLatLon0.09_PT064H.grib2 2026-04-30 08:59 342K
20260430T06Z_MSC_RDPS_SpecificHumidity_AGL-120m_RLatLon0.09_PT064H.grib2 2026-04-30 08:59 493K
20260430T06Z_MSC_RDPS_SpecificHumidity_AGL-2m_RLatLon0.09_PT064H.grib2 2026-04-30 08:59 660K
20260430T06Z_MSC_RDPS_SpecificHumidity_AGL-40m_RLatLon0.09_PT064H.grib2 2026-04-30 08:59 498K
20260430T06Z_MSC_RDPS_SpecificHumidity_AGL-80m_RLatLon0.09_PT064H.grib2 2026-04-30 08:59 495K
20260430T06Z_MSC_RDPS_SpecificHumidity_IsbL-0001_RLatLon0.09_PT064H.grib2 2026-04-30 08:59 369K
20260430T06Z_MSC_RDPS_SpecificHumidity_IsbL-0005_RLatLon0.09_PT064H.grib2 2026-04-30 08:59 356K
20260430T06Z_MSC_RDPS_SpecificHumidity_IsbL-0010_RLatLon0.09_PT064H.grib2 2026-04-30 08:59 389K
20260430T06Z_MSC_RDPS_SpecificHumidity_IsbL-0020_RLatLon0.09_PT064H.grib2 2026-04-30 08:59 374K
20260430T06Z_MSC_RDPS_SpecificHumidity_IsbL-0030_RLatLon0.09_PT064H.grib2 2026-04-30 08:59 471K
20260430T06Z_MSC_RDPS_SpecificHumidity_IsbL-0050_RLatLon0.09_PT064H.grib2 2026-04-30 08:59 477K
20260430T06Z_MSC_RDPS_SpecificHumidity_IsbL-0100_RLatLon0.09_PT064H.grib2 2026-04-30 08:59 421K
20260430T06Z_MSC_RDPS_SpecificHumidity_IsbL-0150_RLatLon0.09_PT064H.grib2 2026-04-30 08:59 458K
20260430T06Z_MSC_RDPS_SpecificHumidity_IsbL-0175_RLatLon0.09_PT064H.grib2 2026-04-30 08:59 436K
20260430T06Z_MSC_RDPS_SpecificHumidity_IsbL-0200_RLatLon0.09_PT064H.grib2 2026-04-30 08:59 464K
20260430T06Z_MSC_RDPS_SpecificHumidity_IsbL-0225_RLatLon0.09_PT064H.grib2 2026-04-30 08:59 454K
20260430T06Z_MSC_RDPS_SpecificHumidity_IsbL-0250_RLatLon0.09_PT064H.grib2 2026-04-30 08:59 516K
20260430T06Z_MSC_RDPS_SpecificHumidity_IsbL-0275_RLatLon0.09_PT064H.grib2 2026-04-30 08:59 475K
20260430T06Z_MSC_RDPS_SpecificHumidity_IsbL-0300_RLatLon0.09_PT064H.grib2 2026-04-30 08:59 449K
20260430T06Z_MSC_RDPS_SpecificHumidity_IsbL-0350_RLatLon0.09_PT064H.grib2 2026-04-30 08:59 447K
20260430T06Z_MSC_RDPS_SpecificHumidity_IsbL-0400_RLatLon0.09_PT064H.grib2 2026-04-30 08:59 526K
20260430T06Z_MSC_RDPS_SpecificHumidity_IsbL-0450_RLatLon0.09_PT064H.grib2 2026-04-30 08:59 573K
20260430T06Z_MSC_RDPS_SpecificHumidity_IsbL-0500_RLatLon0.09_PT064H.grib2 2026-04-30 08:59 508K
20260430T06Z_MSC_RDPS_SpecificHumidity_IsbL-0550_RLatLon0.09_PT064H.grib2 2026-04-30 08:59 585K
20260430T06Z_MSC_RDPS_SpecificHumidity_IsbL-0600_RLatLon0.09_PT064H.grib2 2026-04-30 08:59 638K
20260430T06Z_MSC_RDPS_SpecificHumidity_IsbL-0650_RLatLon0.09_PT064H.grib2 2026-04-30 08:59 559K
20260430T06Z_MSC_RDPS_SpecificHumidity_IsbL-0700_RLatLon0.09_PT064H.grib2 2026-04-30 08:59 607K
20260430T06Z_MSC_RDPS_SpecificHumidity_IsbL-0750_RLatLon0.09_PT064H.grib2 2026-04-30 08:59 661K
20260430T06Z_MSC_RDPS_SpecificHumidity_IsbL-0800_RLatLon0.09_PT064H.grib2 2026-04-30 08:59 735K
20260430T06Z_MSC_RDPS_SpecificHumidity_IsbL-0850_RLatLon0.09_PT064H.grib2 2026-04-30 08:59 807K
20260430T06Z_MSC_RDPS_SpecificHumidity_IsbL-0875_RLatLon0.09_PT064H.grib2 2026-04-30 08:59 835K
20260430T06Z_MSC_RDPS_SpecificHumidity_IsbL-0900_RLatLon0.09_PT064H.grib2 2026-04-30 08:59 710K
20260430T06Z_MSC_RDPS_SpecificHumidity_IsbL-0925_RLatLon0.09_PT064H.grib2 2026-04-30 08:59 710K
20260430T06Z_MSC_RDPS_SpecificHumidity_IsbL-0950_RLatLon0.09_PT064H.grib2 2026-04-30 08:59 708K
20260430T06Z_MSC_RDPS_SpecificHumidity_IsbL-0970_RLatLon0.09_PT064H.grib2 2026-04-30 08:59 700K
20260430T06Z_MSC_RDPS_SpecificHumidity_IsbL-0985_RLatLon0.09_PT064H.grib2 2026-04-30 08:59 694K
20260430T06Z_MSC_RDPS_SpecificHumidity_IsbL-1000_RLatLon0.09_PT064H.grib2 2026-04-30 08:59 688K
20260430T06Z_MSC_RDPS_SpecificHumidity_IsbL-1015_RLatLon0.09_PT064H.grib2 2026-04-30 08:59 675K
20260430T06Z_MSC_RDPS_SpecificHumidity_Sfc_RLatLon0.09_PT064H.grib2 2026-04-30 08:59 343K
20260430T06Z_MSC_RDPS_StormRelativeHelicity_EtaL-10000_RLatLon0.09_PT064H.grib2 2026-04-30 08:59 1.1M
20260430T06Z_MSC_RDPS_StormSeverityIndex_EtaL-10000_RLatLon0.09_PT064H.grib2 2026-04-30 08:59 1.2M
20260430T06Z_MSC_RDPS_Thickness_IsbL-0850to0700_RLatLon0.09_PT064H.grib2 2026-04-30 08:59 177K
20260430T06Z_MSC_RDPS_Thickness_IsbL-1000to0500_RLatLon0.09_PT064H.grib2 2026-04-30 08:59 198K
20260430T06Z_MSC_RDPS_Thickness_IsbL-1000to0850_RLatLon0.09_PT064H.grib2 2026-04-30 08:59 186K
20260430T06Z_MSC_RDPS_TotalCloudCover_Sfc_RLatLon0.09_PT064H.grib2 2026-04-30 08:59 648K
20260430T06Z_MSC_RDPS_TotalTotalsIndex_Sfc_RLatLon0.09_PT064H.grib2 2026-04-30 08:59 2.3M
20260430T06Z_MSC_RDPS_UVIndex-ClearSky_Sfc_RLatLon0.09_PT064H.grib2 2026-04-30 08:59 176K
20260430T06Z_MSC_RDPS_UVIndex_Sfc_RLatLon0.09_PT064H.grib2 2026-04-30 08:59 412K
20260430T06Z_MSC_RDPS_UpwardLongwaveRadiationFlux_NTAtm_RLatLon0.09_PT064H.grib2 2026-04-30 08:59 382K
20260430T06Z_MSC_RDPS_UpwardShortwaveRadiationFlux_NTAtm_RLatLon0.09_PT064H.grib2 2026-04-30 08:59 454K
20260430T06Z_MSC_RDPS_VerticalVelocity_IsbL-0250_RLatLon0.09_PT064H.grib2 2026-04-30 08:59 431K
20260430T06Z_MSC_RDPS_VerticalVelocity_IsbL-0500_RLatLon0.09_PT064H.grib2 2026-04-30 08:59 540K
20260430T06Z_MSC_RDPS_VerticalVelocity_IsbL-0700_RLatLon0.09_PT064H.grib2 2026-04-30 08:59 598K
20260430T06Z_MSC_RDPS_VerticalVelocity_IsbL-0850_RLatLon0.09_PT064H.grib2 2026-04-30 08:59 696K
20260430T06Z_MSC_RDPS_VerticalWindShear_EtaL-6500_RLatLon0.09_PT064H.grib2 2026-04-30 08:59 1.2M
20260430T06Z_MSC_RDPS_WindChill_Sfc_RLatLon0.09_PT064H.grib2 2026-04-30 08:59 1.1M
20260430T06Z_MSC_RDPS_WindDir_AGL-10m_RLatLon0.09_PT064H.grib2 2026-04-30 08:59 940K
20260430T06Z_MSC_RDPS_WindDir_AGL-120m_RLatLon0.09_PT064H.grib2 2026-04-30 08:59 591K
20260430T06Z_MSC_RDPS_WindDir_AGL-40m_RLatLon0.09_PT064H.grib2 2026-04-30 08:59 612K
20260430T06Z_MSC_RDPS_WindDir_AGL-80m_RLatLon0.09_PT064H.grib2 2026-04-30 08:59 600K
20260430T06Z_MSC_RDPS_WindDir_IsbL-0001_RLatLon0.09_PT064H.grib2 2026-04-30 08:59 288K
20260430T06Z_MSC_RDPS_WindDir_IsbL-0005_RLatLon0.09_PT064H.grib2 2026-04-30 08:59 364K
20260430T06Z_MSC_RDPS_WindDir_IsbL-0010_RLatLon0.09_PT064H.grib2 2026-04-30 08:59 386K
20260430T06Z_MSC_RDPS_WindDir_IsbL-0020_RLatLon0.09_PT064H.grib2 2026-04-30 08:59 427K
20260430T06Z_MSC_RDPS_WindDir_IsbL-0030_RLatLon0.09_PT064H.grib2 2026-04-30 08:59 405K
20260430T06Z_MSC_RDPS_WindDir_IsbL-0050_RLatLon0.09_PT064H.grib2 2026-04-30 08:59 411K
20260430T06Z_MSC_RDPS_WindDir_IsbL-0100_RLatLon0.09_PT064H.grib2 2026-04-30 08:59 412K
20260430T06Z_MSC_RDPS_WindDir_IsbL-0150_RLatLon0.09_PT064H.grib2 2026-04-30 08:59 406K
20260430T06Z_MSC_RDPS_WindDir_IsbL-0175_RLatLon0.09_PT064H.grib2 2026-04-30 08:59 428K
20260430T06Z_MSC_RDPS_WindDir_IsbL-0200_RLatLon0.09_PT064H.grib2 2026-04-30 08:59 444K
20260430T06Z_MSC_RDPS_WindDir_IsbL-0225_RLatLon0.09_PT064H.grib2 2026-04-30 08:59 448K
20260430T06Z_MSC_RDPS_WindDir_IsbL-0250_RLatLon0.09_PT064H.grib2 2026-04-30 08:59 449K
20260430T06Z_MSC_RDPS_WindDir_IsbL-0275_RLatLon0.09_PT064H.grib2 2026-04-30 08:59 473K
20260430T06Z_MSC_RDPS_WindDir_IsbL-0300_RLatLon0.09_PT064H.grib2 2026-04-30 08:59 475K
20260430T06Z_MSC_RDPS_WindDir_IsbL-0350_RLatLon0.09_PT064H.grib2 2026-04-30 08:59 498K
20260430T06Z_MSC_RDPS_WindDir_IsbL-0400_RLatLon0.09_PT064H.grib2 2026-04-30 08:59 516K
20260430T06Z_MSC_RDPS_WindDir_IsbL-0450_RLatLon0.09_PT064H.grib2 2026-04-30 08:59 528K
20260430T06Z_MSC_RDPS_WindDir_IsbL-0500_RLatLon0.09_PT064H.grib2 2026-04-30 08:59 542K
20260430T06Z_MSC_RDPS_WindDir_IsbL-0550_RLatLon0.09_PT064H.grib2 2026-04-30 08:59 552K
20260430T06Z_MSC_RDPS_WindDir_IsbL-0600_RLatLon0.09_PT064H.grib2 2026-04-30 08:59 578K
20260430T06Z_MSC_RDPS_WindDir_IsbL-0650_RLatLon0.09_PT064H.grib2 2026-04-30 08:59 612K
20260430T06Z_MSC_RDPS_WindDir_IsbL-0700_RLatLon0.09_PT064H.grib2 2026-04-30 08:59 659K
20260430T06Z_MSC_RDPS_WindDir_IsbL-0750_RLatLon0.09_PT064H.grib2 2026-04-30 08:59 703K
20260430T06Z_MSC_RDPS_WindDir_IsbL-0800_RLatLon0.09_PT064H.grib2 2026-04-30 08:59 764K
20260430T06Z_MSC_RDPS_WindDir_IsbL-0850_RLatLon0.09_PT064H.grib2 2026-04-30 08:59 841K
20260430T06Z_MSC_RDPS_WindDir_IsbL-0875_RLatLon0.09_PT064H.grib2 2026-04-30 08:59 871K
20260430T06Z_MSC_RDPS_WindDir_IsbL-0900_RLatLon0.09_PT064H.grib2 2026-04-30 08:59 889K
20260430T06Z_MSC_RDPS_WindDir_IsbL-0925_RLatLon0.09_PT064H.grib2 2026-04-30 08:59 897K
20260430T06Z_MSC_RDPS_WindDir_IsbL-0950_RLatLon0.09_PT064H.grib2 2026-04-30 08:59 892K
20260430T06Z_MSC_RDPS_WindDir_IsbL-0970_RLatLon0.09_PT064H.grib2 2026-04-30 08:59 900K
20260430T06Z_MSC_RDPS_WindDir_IsbL-0985_RLatLon0.09_PT064H.grib2 2026-04-30 08:59 908K
20260430T06Z_MSC_RDPS_WindDir_IsbL-1000_RLatLon0.09_PT064H.grib2 2026-04-30 08:59 919K
20260430T06Z_MSC_RDPS_WindDir_IsbL-1015_RLatLon0.09_PT064H.grib2 2026-04-30 08:59 932K
20260430T06Z_MSC_RDPS_WindGust-Max_AGL-10m_RLatLon0.09_PT064H.grib2 2026-04-30 08:59 947K
20260430T06Z_MSC_RDPS_WindGust-Min_AGL-10m_RLatLon0.09_PT064H.grib2 2026-04-30 08:59 1.0M
20260430T06Z_MSC_RDPS_WindGust_AGL-10m_RLatLon0.09_PT064H.grib2 2026-04-30 08:59 1.0M
20260430T06Z_MSC_RDPS_WindSpeed_AGL-10m_RLatLon0.09_PT064H.grib2 2026-04-30 08:59 831K
20260430T06Z_MSC_RDPS_WindSpeed_AGL-120m_RLatLon0.09_PT064H.grib2 2026-04-30 08:59 529K
20260430T06Z_MSC_RDPS_WindSpeed_AGL-40m_RLatLon0.09_PT064H.grib2 2026-04-30 08:59 533K
20260430T06Z_MSC_RDPS_WindSpeed_AGL-80m_RLatLon0.09_PT064H.grib2 2026-04-30 08:59 529K
20260430T06Z_MSC_RDPS_WindSpeed_IsbL-0001_RLatLon0.09_PT064H.grib2 2026-04-30 08:59 330K
20260430T06Z_MSC_RDPS_WindSpeed_IsbL-0005_RLatLon0.09_PT064H.grib2 2026-04-30 08:59 345K
20260430T06Z_MSC_RDPS_WindSpeed_IsbL-0010_RLatLon0.09_PT064H.grib2 2026-04-30 08:59 395K
20260430T06Z_MSC_RDPS_WindSpeed_IsbL-0020_RLatLon0.09_PT064H.grib2 2026-04-30 08:59 321K
20260430T06Z_MSC_RDPS_WindSpeed_IsbL-0030_RLatLon0.09_PT064H.grib2 2026-04-30 08:59 317K
20260430T06Z_MSC_RDPS_WindSpeed_IsbL-0050_RLatLon0.09_PT064H.grib2 2026-04-30 08:59 451K
20260430T06Z_MSC_RDPS_WindSpeed_IsbL-0100_RLatLon0.09_PT064H.grib2 2026-04-30 08:59 475K
20260430T06Z_MSC_RDPS_WindSpeed_IsbL-0150_RLatLon0.09_PT064H.grib2 2026-04-30 08:59 384K
20260430T06Z_MSC_RDPS_WindSpeed_IsbL-0175_RLatLon0.09_PT064H.grib2 2026-04-30 08:59 409K
20260430T06Z_MSC_RDPS_WindSpeed_IsbL-0200_RLatLon0.09_PT064H.grib2 2026-04-30 08:59 445K
20260430T06Z_MSC_RDPS_WindSpeed_IsbL-0225_RLatLon0.09_PT064H.grib2 2026-04-30 08:59 452K
20260430T06Z_MSC_RDPS_WindSpeed_IsbL-0250_RLatLon0.09_PT064H.grib2 2026-04-30 08:59 454K
20260430T06Z_MSC_RDPS_WindSpeed_IsbL-0275_RLatLon0.09_PT064H.grib2 2026-04-30 08:59 471K
20260430T06Z_MSC_RDPS_WindSpeed_IsbL-0300_RLatLon0.09_PT064H.grib2 2026-04-30 08:59 469K
20260430T06Z_MSC_RDPS_WindSpeed_IsbL-0350_RLatLon0.09_PT064H.grib2 2026-04-30 08:59 479K
20260430T06Z_MSC_RDPS_WindSpeed_IsbL-0400_RLatLon0.09_PT064H.grib2 2026-04-30 08:59 483K
20260430T06Z_MSC_RDPS_WindSpeed_IsbL-0450_RLatLon0.09_PT064H.grib2 2026-04-30 08:59 463K
20260430T06Z_MSC_RDPS_WindSpeed_IsbL-0500_RLatLon0.09_PT064H.grib2 2026-04-30 08:59 464K
20260430T06Z_MSC_RDPS_WindSpeed_IsbL-0550_RLatLon0.09_PT064H.grib2 2026-04-30 08:59 586K
20260430T06Z_MSC_RDPS_WindSpeed_IsbL-0600_RLatLon0.09_PT064H.grib2 2026-04-30 08:59 596K
20260430T06Z_MSC_RDPS_WindSpeed_IsbL-0650_RLatLon0.09_PT064H.grib2 2026-04-30 08:59 613K
20260430T06Z_MSC_RDPS_WindSpeed_IsbL-0700_RLatLon0.09_PT064H.grib2 2026-04-30 08:59 681K
20260430T06Z_MSC_RDPS_WindSpeed_IsbL-0750_RLatLon0.09_PT064H.grib2 2026-04-30 08:59 710K
20260430T06Z_MSC_RDPS_WindSpeed_IsbL-0800_RLatLon0.09_PT064H.grib2 2026-04-30 08:59 706K
20260430T06Z_MSC_RDPS_WindSpeed_IsbL-0850_RLatLon0.09_PT064H.grib2 2026-04-30 08:59 762K
20260430T06Z_MSC_RDPS_WindSpeed_IsbL-0875_RLatLon0.09_PT064H.grib2 2026-04-30 08:59 784K
20260430T06Z_MSC_RDPS_WindSpeed_IsbL-0900_RLatLon0.09_PT064H.grib2 2026-04-30 08:59 846K
20260430T06Z_MSC_RDPS_WindSpeed_IsbL-0925_RLatLon0.09_PT064H.grib2 2026-04-30 08:59 858K
20260430T06Z_MSC_RDPS_WindSpeed_IsbL-0950_RLatLon0.09_PT064H.grib2 2026-04-30 08:59 856K
20260430T06Z_MSC_RDPS_WindSpeed_IsbL-0970_RLatLon0.09_PT064H.grib2 2026-04-30 08:59 858K
20260430T06Z_MSC_RDPS_WindSpeed_IsbL-0985_RLatLon0.09_PT064H.grib2 2026-04-30 08:59 851K
20260430T06Z_MSC_RDPS_WindSpeed_IsbL-1000_RLatLon0.09_PT064H.grib2 2026-04-30 08:59 843K
20260430T06Z_MSC_RDPS_WindSpeed_IsbL-1015_RLatLon0.09_PT064H.grib2 2026-04-30 08:59 832K
20260430T06Z_MSC_RDPS_WindU_AGL-10m_RLatLon0.09_PT064H.grib2 2026-04-30 08:59 429K
20260430T06Z_MSC_RDPS_WindU_AGL-120m_RLatLon0.09_PT064H.grib2 2026-04-30 08:59 529K
20260430T06Z_MSC_RDPS_WindU_AGL-40m_RLatLon0.09_PT064H.grib2 2026-04-30 08:59 531K
20260430T06Z_MSC_RDPS_WindU_AGL-80m_RLatLon0.09_PT064H.grib2 2026-04-30 08:59 529K
20260430T06Z_MSC_RDPS_WindU_IsbL-0001_RLatLon0.09_PT064H.grib2 2026-04-30 08:59 243K
20260430T06Z_MSC_RDPS_WindU_IsbL-0005_RLatLon0.09_PT064H.grib2 2026-04-30 08:59 282K
20260430T06Z_MSC_RDPS_WindU_IsbL-0010_RLatLon0.09_PT064H.grib2 2026-04-30 08:59 295K
20260430T06Z_MSC_RDPS_WindU_IsbL-0020_RLatLon0.09_PT064H.grib2 2026-04-30 08:59 312K
20260430T06Z_MSC_RDPS_WindU_IsbL-0030_RLatLon0.09_PT064H.grib2 2026-04-30 08:59 352K
20260430T06Z_MSC_RDPS_WindU_IsbL-0050_RLatLon0.09_PT064H.grib2 2026-04-30 08:59 377K
20260430T06Z_MSC_RDPS_WindU_IsbL-0100_RLatLon0.09_PT064H.grib2 2026-04-30 08:59 431K
20260430T06Z_MSC_RDPS_WindU_IsbL-0150_RLatLon0.09_PT064H.grib2 2026-04-30 08:59 398K
20260430T06Z_MSC_RDPS_WindU_IsbL-0175_RLatLon0.09_PT064H.grib2 2026-04-30 08:59 422K
20260430T06Z_MSC_RDPS_WindU_IsbL-0200_RLatLon0.09_PT064H.grib2 2026-04-30 08:59 436K
20260430T06Z_MSC_RDPS_WindU_IsbL-0225_RLatLon0.09_PT064H.grib2 2026-04-30 08:59 344K
20260430T06Z_MSC_RDPS_WindU_IsbL-0250_RLatLon0.09_PT064H.grib2 2026-04-30 08:59 345K
20260430T06Z_MSC_RDPS_WindU_IsbL-0275_RLatLon0.09_PT064H.grib2 2026-04-30 08:59 360K
20260430T06Z_MSC_RDPS_WindU_IsbL-0300_RLatLon0.09_PT064H.grib2 2026-04-30 08:59 357K
20260430T06Z_MSC_RDPS_WindU_IsbL-0350_RLatLon0.09_PT064H.grib2 2026-04-30 08:59 365K
20260430T06Z_MSC_RDPS_WindU_IsbL-0400_RLatLon0.09_PT064H.grib2 2026-04-30 08:59 472K
20260430T06Z_MSC_RDPS_WindU_IsbL-0450_RLatLon0.09_PT064H.grib2 2026-04-30 08:59 469K
20260430T06Z_MSC_RDPS_WindU_IsbL-0500_RLatLon0.09_PT064H.grib2 2026-04-30 08:59 471K
20260430T06Z_MSC_RDPS_WindU_IsbL-0550_RLatLon0.09_PT064H.grib2 2026-04-30 08:59 476K
20260430T06Z_MSC_RDPS_WindU_IsbL-0600_RLatLon0.09_PT064H.grib2 2026-04-30 08:59 467K
20260430T06Z_MSC_RDPS_WindU_IsbL-0650_RLatLon0.09_PT064H.grib2 2026-04-30 08:59 485K
20260430T06Z_MSC_RDPS_WindU_IsbL-0700_RLatLon0.09_PT064H.grib2 2026-04-30 08:59 507K
20260430T06Z_MSC_RDPS_WindU_IsbL-0750_RLatLon0.09_PT064H.grib2 2026-04-30 08:59 532K
20260430T06Z_MSC_RDPS_WindU_IsbL-0800_RLatLon0.09_PT064H.grib2 2026-04-30 08:59 567K
20260430T06Z_MSC_RDPS_WindU_IsbL-0850_RLatLon0.09_PT064H.grib2 2026-04-30 08:59 626K
20260430T06Z_MSC_RDPS_WindU_IsbL-0875_RLatLon0.09_PT064H.grib2 2026-04-30 08:59 636K
20260430T06Z_MSC_RDPS_WindU_IsbL-0900_RLatLon0.09_PT064H.grib2 2026-04-30 08:59 648K
20260430T06Z_MSC_RDPS_WindU_IsbL-0925_RLatLon0.09_PT064H.grib2 2026-04-30 08:59 655K
20260430T06Z_MSC_RDPS_WindU_IsbL-0950_RLatLon0.09_PT064H.grib2 2026-04-30 08:59 650K
20260430T06Z_MSC_RDPS_WindU_IsbL-0970_RLatLon0.09_PT064H.grib2 2026-04-30 08:59 652K
20260430T06Z_MSC_RDPS_WindU_IsbL-0985_RLatLon0.09_PT064H.grib2 2026-04-30 08:59 648K
20260430T06Z_MSC_RDPS_WindU_IsbL-1000_RLatLon0.09_PT064H.grib2 2026-04-30 08:59 782K
20260430T06Z_MSC_RDPS_WindU_IsbL-1015_RLatLon0.09_PT064H.grib2 2026-04-30 08:59 773K
20260430T06Z_MSC_RDPS_WindV_AGL-10m_RLatLon0.09_PT064H.grib2 2026-04-30 08:59 428K
20260430T06Z_MSC_RDPS_WindV_AGL-120m_RLatLon0.09_PT064H.grib2 2026-04-30 08:59 411K
20260430T06Z_MSC_RDPS_WindV_AGL-40m_RLatLon0.09_PT064H.grib2 2026-04-30 08:59 529K
20260430T06Z_MSC_RDPS_WindV_AGL-80m_RLatLon0.09_PT064H.grib2 2026-04-30 08:59 411K
20260430T06Z_MSC_RDPS_WindV_IsbL-0001_RLatLon0.09_PT064H.grib2 2026-04-30 08:59 245K
20260430T06Z_MSC_RDPS_WindV_IsbL-0005_RLatLon0.09_PT064H.grib2 2026-04-30 08:59 286K
20260430T06Z_MSC_RDPS_WindV_IsbL-0010_RLatLon0.09_PT064H.grib2 2026-04-30 08:59 390K
20260430T06Z_MSC_RDPS_WindV_IsbL-0020_RLatLon0.09_PT064H.grib2 2026-04-30 08:59 317K
20260430T06Z_MSC_RDPS_WindV_IsbL-0030_RLatLon0.09_PT064H.grib2 2026-04-30 08:59 316K
20260430T06Z_MSC_RDPS_WindV_IsbL-0050_RLatLon0.09_PT064H.grib2 2026-04-30 08:59 342K
20260430T06Z_MSC_RDPS_WindV_IsbL-0100_RLatLon0.09_PT064H.grib2 2026-04-30 08:59 428K
20260430T06Z_MSC_RDPS_WindV_IsbL-0150_RLatLon0.09_PT064H.grib2 2026-04-30 08:59 398K
20260430T06Z_MSC_RDPS_WindV_IsbL-0175_RLatLon0.09_PT064H.grib2 2026-04-30 08:59 422K
20260430T06Z_MSC_RDPS_WindV_IsbL-0200_RLatLon0.09_PT064H.grib2 2026-04-30 08:59 338K
20260430T06Z_MSC_RDPS_WindV_IsbL-0225_RLatLon0.09_PT064H.grib2 2026-04-30 08:59 342K
20260430T06Z_MSC_RDPS_WindV_IsbL-0250_RLatLon0.09_PT064H.grib2 2026-04-30 08:59 343K
20260430T06Z_MSC_RDPS_WindV_IsbL-0275_RLatLon0.09_PT064H.grib2 2026-04-30 08:59 358K
20260430T06Z_MSC_RDPS_WindV_IsbL-0300_RLatLon0.09_PT064H.grib2 2026-04-30 08:59 380K
20260430T06Z_MSC_RDPS_WindV_IsbL-0350_RLatLon0.09_PT064H.grib2 2026-04-30 08:59 362K
20260430T06Z_MSC_RDPS_WindV_IsbL-0400_RLatLon0.09_PT064H.grib2 2026-04-30 08:59 364K
20260430T06Z_MSC_RDPS_WindV_IsbL-0450_RLatLon0.09_PT064H.grib2 2026-04-30 08:59 467K
20260430T06Z_MSC_RDPS_WindV_IsbL-0500_RLatLon0.09_PT064H.grib2 2026-04-30 08:59 468K
20260430T06Z_MSC_RDPS_WindV_IsbL-0550_RLatLon0.09_PT064H.grib2 2026-04-30 08:59 472K
20260430T06Z_MSC_RDPS_WindV_IsbL-0600_RLatLon0.09_PT064H.grib2 2026-04-30 08:59 482K
20260430T06Z_MSC_RDPS_WindV_IsbL-0650_RLatLon0.09_PT064H.grib2 2026-04-30 08:59 481K
20260430T06Z_MSC_RDPS_WindV_IsbL-0700_RLatLon0.09_PT064H.grib2 2026-04-30 08:59 519K
20260430T06Z_MSC_RDPS_WindV_IsbL-0750_RLatLon0.09_PT064H.grib2 2026-04-30 08:59 529K
20260430T06Z_MSC_RDPS_WindV_IsbL-0800_RLatLon0.09_PT064H.grib2 2026-04-30 08:59 563K
20260430T06Z_MSC_RDPS_WindV_IsbL-0850_RLatLon0.09_PT064H.grib2 2026-04-30 08:59 611K
20260430T06Z_MSC_RDPS_WindV_IsbL-0875_RLatLon0.09_PT064H.grib2 2026-04-30 08:59 632K
20260430T06Z_MSC_RDPS_WindV_IsbL-0900_RLatLon0.09_PT064H.grib2 2026-04-30 08:59 645K
20260430T06Z_MSC_RDPS_WindV_IsbL-0925_RLatLon0.09_PT064H.grib2 2026-04-30 08:59 652K
20260430T06Z_MSC_RDPS_WindV_IsbL-0950_RLatLon0.09_PT064H.grib2 2026-04-30 08:59 647K
20260430T06Z_MSC_RDPS_WindV_IsbL-0970_RLatLon0.09_PT064H.grib2 2026-04-30 08:59 648K
20260430T06Z_MSC_RDPS_WindV_IsbL-0985_RLatLon0.09_PT064H.grib2 2026-04-30 08:59 785K
20260430T06Z_MSC_RDPS_WindV_IsbL-1000_RLatLon0.09_PT064H.grib2 2026-04-30 08:59 778K
20260430T06Z_MSC_RDPS_WindV_IsbL-1015_RLatLon0.09_PT064H.grib2 2026-04-30 08:59 771K